DAL2398 KEWR-KATL

Flight info

Callsign DAL2398
Flight time N/A
Altitude 36000
Route LANNA J48 MOL FLASK OZZZI1
Aircraft B739/M-SDE2E3FGHIRWXY/LB1

Departure

Time 2026-05-05 20:39
Airport Newark Liberty International Airport (KEWR)

Arrival

Time N/A
Airport Hartsfield Jackson Atlanta International Airport (KATL)
Time Latitude Longitude Altitude Speed Heading
2026-05-05 19:52 40.68200 -74.18712 19 ft 0 kts 283°
2026-05-05 20:17 40.68198 -74.18702 19 ft 2 kts 282°
2026-05-05 20:18 40.68194 -74.18681 19 ft 2 kts 285°
2026-05-05 20:18 40.68189 -74.18660 21 ft 2 kts 289°
2026-05-05 20:18 40.68183 -74.18640 21 ft 2 kts 295°
2026-05-05 20:18 40.68175 -74.18622 20 ft 2 kts 308°
2026-05-05 20:19 40.68162 -74.18608 20 ft 2 kts 345°
2026-05-05 20:19 40.68149 -74.18606 20 ft 1 kts
2026-05-05 20:19 40.68146 -74.18607 22 ft 0 kts
2026-05-05 20:28 40.68148 -74.18606 22 ft 1 kts
2026-05-05 20:29 40.68167 -74.18602 21 ft 4 kts 12°
2026-05-05 20:29 40.68202 -74.18576 20 ft 7 kts 50°
2026-05-05 20:29 40.68213 -74.18502 19 ft 10 kts 92°
2026-05-05 20:29 40.68210 -74.18404 19 ft 11 kts 93°
2026-05-05 20:30 40.68205 -74.18304 19 ft 11 kts 94°
2026-05-05 20:30 40.68199 -74.18206 19 ft 11 kts 92°
2026-05-05 20:30 40.68196 -74.18110 19 ft 10 kts 93°
2026-05-05 20:30 40.68192 -74.18017 19 ft 10 kts 91°
2026-05-05 20:31 40.68191 -74.17915 19 ft 12 kts 95°
2026-05-05 20:31 40.68172 -74.17828 19 ft 10 kts 115°
2026-05-05 20:31 40.68148 -74.17747 19 ft 5 kts 86°
2026-05-05 20:31 40.68172 -74.17705 19 ft 7 kts 36°
2026-05-05 20:32 40.68219 -74.17672 19 ft 9 kts 25°
2026-05-05 20:32 40.68279 -74.17636 19 ft 10 kts 24°
2026-05-05 20:32 40.68348 -74.17595 19 ft 11 kts 24°
2026-05-05 20:32 40.68419 -74.17544 20 ft 12 kts 27°
2026-05-05 20:33 40.68495 -74.17497 20 ft 13 kts 25°
2026-05-05 20:33 40.68579 -74.17444 20 ft 14 kts 25°
2026-05-05 20:33 40.68666 -74.17391 20 ft 14 kts 25°
2026-05-05 20:33 40.68759 -74.17329 20 ft 16 kts 26°
2026-05-05 20:34 40.68859 -74.17266 20 ft 17 kts 25°
2026-05-05 20:34 40.68966 -74.17199 19 ft 18 kts 26°
2026-05-05 20:34 40.69082 -74.17126 19 ft 19 kts 25°
2026-05-05 20:34 40.69201 -74.17049 19 ft 18 kts 26°
2026-05-05 20:35 40.69311 -74.16977 19 ft 15 kts 26°
2026-05-05 20:35 40.69405 -74.16918 20 ft 15 kts 25°
2026-05-05 20:35 40.69502 -74.16858 19 ft 16 kts 26°
2026-05-05 20:35 40.69598 -74.16795 19 ft 16 kts 25°
2026-05-05 20:36 40.69701 -74.16731 19 ft 17 kts 27°
2026-05-05 20:36 40.69810 -74.16660 18 ft 18 kts 26°
2026-05-05 20:36 40.69923 -74.16589 18 ft 17 kts 25°
2026-05-05 20:36 40.70019 -74.16528 18 ft 15 kts 25°
2026-05-05 20:37 40.70061 -74.16439 18 ft 8 kts 90°
2026-05-05 20:37 40.70048 -74.16361 18 ft 7 kts 143°
2026-05-05 20:37 40.70005 -74.16376 17 ft 2 kts 205°
2026-05-05 20:37 40.70004 -74.16377 17 ft 0 kts 205°
2026-05-05 20:38 40.70003 -74.16378 17 ft 1 kts 205°
2026-05-05 20:38 40.69992 -74.16384 16 ft 3 kts 206°
2026-05-05 20:38 40.69875 -74.16462 18 ft 54 kts 206°
2026-05-05 20:38 40.69281 -74.16838 23 ft 131 kts 208°
2026-05-05 20:39 40.68304 -74.17436 326 ft 169 kts 209°
2026-05-05 20:39 40.67124 -74.18108 898 ft 198 kts 207°
2026-05-05 20:39 40.65853 -74.18947 1563 ft 215 kts 216°
2026-05-05 20:39 40.64897 -74.20497 2291 ft 225 kts 244°
2026-05-05 20:40 40.64571 -74.22438 2358 ft 206 kts 261°
2026-05-05 20:40 40.64498 -74.24211 2433 ft 181 kts 262°
2026-05-05 20:40 40.64462 -74.25757 2469 ft 158 kts 263°
2026-05-05 20:40 40.64437 -74.27110 2517 ft 142 kts 263°
2026-05-05 20:41 40.64372 -74.28413 2596 ft 146 kts 257°
2026-05-05 20:41 40.64202 -74.29871 2799 ft 178 kts 257°
2026-05-05 20:41 40.63993 -74.31625 3053 ft 208 kts 257°
2026-05-05 20:41 40.63754 -74.33651 3350 ft 238 kts 257°
2026-05-05 20:42 40.63509 -74.35802 4260 ft 241 kts 258°
2026-05-05 20:42 40.63262 -74.38017 5193 ft 246 kts 258°
2026-05-05 20:42 40.63015 -74.40249 6208 ft 248 kts 258°
2026-05-05 20:42 40.62766 -74.42506 7175 ft 249 kts 259°
2026-05-05 20:43 40.62517 -74.44773 8202 ft 250 kts 259°
2026-05-05 20:43 40.62266 -74.47046 9192 ft 251 kts 261°
2026-05-05 20:43 40.62015 -74.49324 10151 ft 252 kts 261°
2026-05-05 20:43 40.61759 -74.51647 10635 ft 272 kts 261°
2026-05-05 20:44 40.61471 -74.54246 10831 ft 299 kts 261°
2026-05-05 20:44 40.61160 -74.57049 11231 ft 316 kts 261°
2026-05-05 20:44 40.60839 -74.59937 11989 ft 321 kts 261°
2026-05-05 20:44 40.60516 -74.62850 12857 ft 323 kts 261°
2026-05-05 20:45 40.59854 -74.68785 14355 ft 332 kts 261°
2026-05-05 20:45 40.59516 -74.71806 15059 ft 336 kts 261°
2026-05-05 20:45 40.59173 -74.74866 15752 ft 340 kts 261°
2026-05-05 20:46 40.58825 -74.77962 16447 ft 344 kts 261°
2026-05-05 20:46 40.58475 -74.81061 17103 ft 349 kts 261°
2026-05-05 20:46 40.58117 -74.84231 17770 ft 353 kts 261°
2026-05-05 20:46 40.57752 -74.87453 18405 ft 357 kts 261°
2026-05-05 20:47 40.57384 -74.90698 19022 ft 360 kts 261°
2026-05-05 20:47 40.57010 -74.93980 19585 ft 365 kts 262°
2026-05-05 20:47 40.56630 -74.97299 20161 ft 369 kts 261°
2026-05-05 20:47 40.56033 -75.00594 20749 ft 373 kts 251°
2026-05-05 20:48 40.54991 -75.03739 21343 ft 377 kts 244°
2026-05-05 20:48 40.53605 -75.06703 21923 ft 383 kts 235°
2026-05-05 20:48 40.51917 -75.09435 22541 ft 386 kts 232°
2026-05-05 20:48 40.50176 -75.12154 23077 ft 390 kts 232°
2026-05-05 20:49 40.48411 -75.14896 23583 ft 394 kts 232°
2026-05-05 20:49 40.46636 -75.17662 24039 ft 398 kts 232°
2026-05-05 20:49 40.44849 -75.20458 24480 ft 401 kts 233°
2026-05-05 20:49 40.43077 -75.23241 24939 ft 404 kts 233°
2026-05-05 20:50 40.41269 -75.26086 25375 ft 407 kts 233°
2026-05-05 20:50 40.39447 -75.28955 25777 ft 411 kts 233°
2026-05-05 20:50 40.37602 -75.31860 26127 ft 416 kts 233°
2026-05-05 20:50 40.35745 -75.34781 26555 ft 419 kts 233°
2026-05-05 20:51 40.33871 -75.37725 26996 ft 422 kts 233°
2026-05-05 20:51 40.31979 -75.40695 27421 ft 424 kts 233°
2026-05-05 20:51 40.30076 -75.43679 27873 ft 427 kts 233°
2026-05-05 20:51 40.28171 -75.46662 28424 ft 426 kts 233°
2026-05-05 20:52 40.26265 -75.49646 28817 ft 430 kts 233°
2026-05-05 20:52 40.24333 -75.52667 29180 ft 433 kts 233°
2026-05-05 20:52 40.22402 -75.55695 29696 ft 432 kts 234°
2026-05-05 20:52 40.20662 -75.58815 30184 ft 429 kts 240°
2026-05-05 20:53 40.19039 -75.62079 30667 ft 427 kts 242°
2026-05-05 20:53 40.17450 -75.65345 31186 ft 424 kts 242°
2026-05-05 20:53 40.15865 -75.68586 31702 ft 422 kts 242°
2026-05-05 20:53 40.14276 -75.71796 32190 ft 420 kts 243°
2026-05-05 20:54 40.12676 -75.74994 32655 ft 419 kts 243°
2026-05-05 20:54 40.11082 -75.78163 33144 ft 417 kts 243°
2026-05-05 20:54 40.09493 -75.81312 33752 ft 412 kts 244°
2026-05-05 20:54 40.07924 -75.84409 34286 ft 407 kts 243°
2026-05-05 20:55 40.06354 -75.87497 34567 ft 408 kts 243°
2026-05-05 20:55 40.04778 -75.90596 34782 ft 411 kts 243°
2026-05-05 20:55 40.03189 -75.93714 34981 ft 413 kts 243°
2026-05-05 20:55 40.01591 -75.96848 35282 ft 413 kts 243°
2026-05-05 20:56 40.00002 -75.99962 35640 ft 412 kts 243°
2026-05-05 20:56 39.98415 -76.03069 35861 ft 414 kts 243°
2026-05-05 20:56 39.95203 -76.09362 35852 ft 416 kts 243°
2026-05-05 20:57 39.92061 -76.15592 35860 ft 410 kts 243°
2026-05-05 20:57 39.88932 -76.21766 35860 ft 406 kts 243°
2026-05-05 20:58 39.85810 -76.27848 35858 ft 402 kts 243°
2026-05-05 20:58 39.82690 -76.33921 35888 ft 406 kts 243°
2026-05-05 20:59 39.79520 -76.40095 35868 ft 413 kts 243°
2026-05-05 20:59 39.76323 -76.46294 35863 ft 412 kts 243°
2026-05-05 21:00 39.73144 -76.52450 35889 ft 412 kts 243°
2026-05-05 21:00 39.69947 -76.58629 35873 ft 410 kts 243°
2026-05-05 21:01 39.66772 -76.64757 35857 ft 407 kts 243°
2026-05-05 21:01 39.63632 -76.70805 35873 ft 405 kts 243°
2026-05-05 21:02 39.60485 -76.76858 35869 ft 404 kts 243°
2026-05-05 21:02 39.57872 -76.81875 35892 ft 403 kts 243°
2026-05-05 21:03 39.54731 -76.87898 35891 ft 403 kts 243°
2026-05-05 21:03 39.51586 -76.93913 35873 ft 403 kts 243°
2026-05-05 21:04 39.48005 -76.99575 35867 ft 416 kts 230°
2026-05-05 21:04 39.43487 -77.04337 35881 ft 420 kts 227°
2026-05-05 21:05 39.38919 -77.09071 35895 ft 421 kts 227°
2026-05-05 21:05 39.34360 -77.13826 35907 ft 421 kts 227°
2026-05-05 21:06 39.29806 -77.18595 35886 ft 422 kts 227°
2026-05-05 21:06 39.25269 -77.23344 35903 ft 423 kts 228°
2026-05-05 21:07 39.20693 -77.28128 35896 ft 424 kts 228°
2026-05-05 21:07 39.16103 -77.32916 35901 ft 424 kts 228°
2026-05-05 21:08 39.11509 -77.37699 35858 ft 424 kts 227°
2026-05-05 21:08 39.06924 -77.42465 35881 ft 424 kts 227°
2026-05-05 21:09 39.02331 -77.47231 35879 ft 424 kts 227°
2026-05-05 21:09 38.97759 -77.51969 35881 ft 424 kts 227°
2026-05-05 21:10 38.93153 -77.56733 35879 ft 424 kts 227°
2026-05-05 21:10 38.88561 -77.61474 35876 ft 424 kts 228°
2026-05-05 21:11 38.83961 -77.66215 35894 ft 424 kts 227°
2026-05-05 21:11 38.79358 -77.70951 35898 ft 424 kts 227°
2026-05-05 21:12 38.74790 -77.75645 35902 ft 423 kts 227°
2026-05-05 21:12 38.70189 -77.80366 35875 ft 423 kts 227°
2026-05-05 21:13 38.65596 -77.85072 35895 ft 422 kts 229°
2026-05-05 21:13 38.61729 -77.90468 35916 ft 406 kts 242°
2026-05-05 21:14 38.58371 -77.96287 35908 ft 407 kts 242°
2026-05-05 21:14 38.54983 -78.02114 35904 ft 408 kts 242°
2026-05-05 21:15 38.51603 -78.07878 35894 ft 408 kts 242°
2026-05-05 21:15 38.48186 -78.13676 35897 ft 408 kts 242°
2026-05-05 21:16 38.44766 -78.19468 35907 ft 408 kts 242°
2026-05-05 21:16 38.41346 -78.25249 35906 ft 408 kts 242°
2026-05-05 21:17 38.37941 -78.30997 35907 ft 408 kts 241°
2026-05-05 21:17 38.34516 -78.36767 35909 ft 409 kts 241°
2026-05-05 21:18 38.31081 -78.42543 35885 ft 408 kts 242°
2026-05-05 21:18 38.27646 -78.48310 35906 ft 408 kts 242°
2026-05-05 21:19 38.24205 -78.54078 35919 ft 409 kts 241°
2026-05-05 21:19 38.20757 -78.59846 35924 ft 409 kts 242°
2026-05-05 21:20 38.17306 -78.65608 35895 ft 409 kts 241°
2026-05-05 21:20 38.13855 -78.71362 35908 ft 409 kts 241°
2026-05-05 21:21 38.10399 -78.77114 35932 ft 410 kts 241°
2026-05-05 21:21 38.06953 -78.82839 35933 ft 411 kts 241°
2026-05-05 21:22 38.03472 -78.88611 35941 ft 412 kts 241°
2026-05-05 21:22 37.99983 -78.94389 35937 ft 412 kts 241°
2026-05-05 21:23 37.96513 -79.00122 35931 ft 412 kts 241°
2026-05-05 21:23 37.93023 -79.05881 35945 ft 412 kts 241°
2026-05-05 21:24 37.89494 -79.11605 35951 ft 414 kts 238°
2026-05-05 21:24 37.85634 -79.17019 35981 ft 414 kts 237°
2026-05-05 21:25 37.81730 -79.22389 35965 ft 413 kts 237°
2026-05-05 21:25 37.77847 -79.27746 35991 ft 412 kts 237°
2026-05-05 21:26 37.75823 -79.30545 35995 ft 412 kts 237°
2026-05-05 21:26 37.73228 -79.34140 36006 ft 411 kts 237°
2026-05-05 21:27 37.69370 -79.39480 35974 ft 412 kts 237°
2026-05-05 21:27 37.65504 -79.44824 35992 ft 412 kts 237°
2026-05-05 21:28 37.61614 -79.50192 35971 ft 414 kts 237°
2026-05-05 21:28 37.57716 -79.55559 35961 ft 415 kts 237°
2026-05-05 21:29 37.53836 -79.60896 35961 ft 415 kts 237°
2026-05-05 21:29 37.49920 -79.66268 35932 ft 415 kts 237°
2026-05-05 21:30 37.46014 -79.71620 35957 ft 416 kts 237°
2026-05-05 21:30 37.42089 -79.76990 35974 ft 417 kts 237°
2026-05-05 21:31 37.38151 -79.82367 35975 ft 417 kts 237°
2026-05-05 21:31 37.34220 -79.87725 35975 ft 416 kts 237°
2026-05-05 21:32 37.30323 -79.93028 35985 ft 415 kts 237°
2026-05-05 21:32 37.26401 -79.98359 35956 ft 415 kts 237°
2026-05-05 21:33 37.22476 -80.03685 35972 ft 415 kts 237°
2026-05-05 21:33 37.18542 -80.09016 35989 ft 416 kts 237°
2026-05-05 21:34 37.14615 -80.14326 35987 ft 418 kts 237°
2026-05-05 21:34 37.10654 -80.19677 36007 ft 418 kts 237°
2026-05-05 21:35 37.06685 -80.25023 35969 ft 419 kts 238°
2026-05-05 21:35 37.02722 -80.30358 35989 ft 418 kts 238°
2026-05-05 21:36 36.98699 -80.35647 35984 ft 420 kts 236°
2026-05-05 21:36 36.94628 -80.40827 35990 ft 420 kts 236°
2026-05-05 21:37 36.90528 -80.46036 35972 ft 420 kts 236°
2026-05-05 21:37 36.86439 -80.51244 35965 ft 419 kts 236°
2026-05-05 21:38 36.82359 -80.56443 35967 ft 418 kts 237°
2026-05-05 21:38 36.78286 -80.61628 35969 ft 417 kts 237°
2026-05-05 21:39 36.74239 -80.66769 36013 ft 418 kts 237°
2026-05-05 21:39 36.70162 -80.71941 36024 ft 417 kts 237°
2026-05-05 21:40 36.66092 -80.77096 36030 ft 417 kts 237°
2026-05-05 21:40 36.62018 -80.82249 35983 ft 417 kts 237°
2026-05-05 21:41 36.57952 -80.87382 35999 ft 417 kts 237°
2026-05-05 21:41 36.53893 -80.92501 35969 ft 418 kts 236°
2026-05-05 21:42 36.49800 -80.97652 35994 ft 418 kts 237°
2026-05-05 21:42 36.45704 -81.02798 36003 ft 419 kts 236°
2026-05-05 21:43 36.41598 -81.07943 36027 ft 419 kts 236°
2026-05-05 21:43 36.37503 -81.13074 36034 ft 418 kts 237°
2026-05-05 21:44 36.33410 -81.18200 36041 ft 418 kts 236°
2026-05-05 21:44 36.29304 -81.23328 36043 ft 419 kts 236°
2026-05-05 21:45 36.25218 -81.28426 36030 ft 420 kts 237°
2026-05-05 21:45 36.21102 -81.33559 36024 ft 420 kts 237°
2026-05-05 21:46 36.16989 -81.38677 36009 ft 418 kts 237°
2026-05-05 21:46 36.12884 -81.43777 35989 ft 417 kts 237°
2026-05-05 21:47 36.08792 -81.48859 35972 ft 417 kts 237°
2026-05-05 21:47 36.04696 -81.53924 35973 ft 416 kts 237°
2026-05-05 21:48 36.00694 -81.58990 35960 ft 416 kts 237°
2026-05-05 21:48 35.96584 -81.64013 35985 ft 416 kts 236°
2026-05-05 21:49 35.92474 -81.69037 35972 ft 415 kts 236°
2026-05-05 21:49 35.88381 -81.74071 35974 ft 415 kts 236°
2026-05-05 21:50 35.84980 -81.78256 36023 ft 416 kts 236°
2026-05-05 21:50 35.80884 -81.83288 36015 ft 416 kts 236°
2026-05-05 21:51 35.76755 -81.88316 35797 ft 419 kts 236°
2026-05-05 21:51 35.74648 -81.90841 35309 ft 421 kts 235°
2026-05-05 21:51 35.72578 -81.93308 34923 ft 418 kts 234°
2026-05-05 21:52 35.68411 -81.98269 34136 ft 416 kts 234°
2026-05-05 21:52 35.66335 -82.00747 33702 ft 416 kts 233°
2026-05-05 21:52 35.64255 -82.03230 33308 ft 415 kts 233°
2026-05-05 21:53 35.62180 -82.05705 33021 ft 417 kts 233°
2026-05-05 21:53 35.60087 -82.08207 32689 ft 423 kts 233°
2026-05-05 21:53 35.57963 -82.10743 32360 ft 426 kts 233°
2026-05-05 21:53 35.55827 -82.13285 32036 ft 427 kts 233°
2026-05-05 21:54 35.53691 -82.15823 31716 ft 428 kts 232°
2026-05-05 21:54 35.51575 -82.18334 31367 ft 428 kts 232°
2026-05-05 21:54 35.49419 -82.20869 31059 ft 427 kts 232°
2026-05-05 21:54 35.47285 -82.23413 30749 ft 428 kts 232°
2026-05-05 21:55 35.45146 -82.25972 30438 ft 431 kts 231°
2026-05-05 21:55 35.42982 -82.28539 30138 ft 434 kts 231°
2026-05-05 21:55 35.40810 -82.31139 29785 ft 434 kts 232°
2026-05-05 21:55 35.38685 -82.33768 29428 ft 433 kts 232°
2026-05-05 21:56 35.36605 -82.36372 29076 ft 433 kts 232°
2026-05-05 21:56 35.34497 -82.39015 28730 ft 434 kts 232°
2026-05-05 21:56 35.32385 -82.41656 28384 ft 434 kts 232°
2026-05-05 21:56 35.30269 -82.44290 28050 ft 434 kts 231°
2026-05-05 21:57 35.28147 -82.46924 27720 ft 434 kts 231°
2026-05-05 21:57 35.26021 -82.49558 27369 ft 435 kts 231°
2026-05-05 21:57 35.23898 -82.52185 27081 ft 436 kts 231°
2026-05-05 21:57 35.21753 -82.54837 26761 ft 438 kts 231°
2026-05-05 21:58 35.19600 -82.57498 26437 ft 440 kts 231°
2026-05-05 21:58 35.17439 -82.60164 26115 ft 442 kts 231°
2026-05-05 21:58 35.15272 -82.62828 25788 ft 443 kts 230°